Location: Allie Creek
(37.5926°N, 89.8526°W)
Time: 16:23:40
(UTC+00:00)

SL-16 R/B - Pass Details

Date: 29 April 2024
Orbit: 841 x 845 km, 71.0° (Epoch: 25 May)

Event Time Altitude Azimuth Distance (km) Brightness Sun altitude
Exits shadow 03:39:21 26° 232° (SW) 1,605 3.6 -28.6°
Maximum altitude 03:42:20 51° 296° (WNW) 1,054 2.9 -29.0°
Drops below altitude 10° 03:47:51 10° 12° (NNE) 2,471 5.1 -29.7°
Sets 03:50:23 0° 18° (NNE) 3,410 5.8 -30.0°
